LARES

Last updated on Sat Apr 13 2024 01:03:22 GMT+0100 (British Summer Time)

1 38077U 12006A 24103.46450051 -.00000044 00000+0 -31906-4 0 9991 2 38077 69.4905 211.4106 0006569 66.5656 293.6060 12.54931474557233
UTC large
Height (km)
Speed (km/s)
/
Latitude / Longitude
Inclination (degrees)
Orbital Period (minutes)
Azimuth
Elevation
Range (km)
Doppler Factor

Next 0 passes for location: London (51.5072 / 0.1276)

Sorry there are no passes over London.